{"data":{"norad_id":59204,"intl_designator":"2024-046D","name":"STARLINK-31522","alt_names":[],"object_type":"PAYLOAD","status":"ACTIVE","operator":null,"country":"US","launch_date":"2024-03-11","launch_site_code":"AFWTR","launch_vehicle":null,"mission":null,"orbit_class":"UNKNOWN","rcs_meters":null,"size_class":null,"mass_kg":null,"dimensions":null,"purposes":["comms"],"wikipedia_slug":null,"has_3d_model":false,"image_url":null,"decayed_at":null,"tle_current":{"epoch":"2026-05-24T18:23:40.432416Z","epoch_age_seconds":91403,"freshness":"FRESH","line1":"1 59204U 24046D   26144.76644019  .00000254  00000+0  20694-4 0  9995","line2":"2 59204  53.1589 162.2264 0001111  93.9845 266.1283 15.30189763124691","mean_motion":15.30189763,"eccentricity":0.0001111,"inclination_deg":53.1589,"raan_deg":162.2264,"arg_perigee_deg":93.9845,"mean_anomaly_deg":266.1283,"bstar":2.0694e-5,"rev_number":12469,"period_min":94.105975273081,"perigee_km":474.4842246157,"apogee_km":476.00704623729,"semimajor_km":6853.3826354265,"source":"CELESTRAK","updated_at":"2026-05-25T13:38:18.864385Z"}}}